Powrót do katalogu

FENGYUN 1C DEB

AktywnyPO
NORAD 41003·DEBRIS·🇨🇳 China

Wystrzelony May 10, 1999 z Taiyuan Satellite Launch Center

Loading…

Następne Przeloty (najbliższe 24 godziny)

TLE

ŚwieżeSource: Space-Track

Epoka: Sep 12, 2026, 03:36 UTC

1 41003U 99025EXH 26255.15013377  .00021796  00000-0  23021-2 0  9995
2 41003  98.9674 211.4068 0053835 144.1292 216.3556 14.88192138564673

Śledź FENGYUN 1C DEB w czasie rzeczywistym z AllMySat

Download on the App Store